User: anonymous   Login
Location: Springfield
(37.2150°N, 93.2980°W)
Time: 12:55:58
(UTC-05:00)
Language:

Iridium 62 - Orbit

View from above orbital plane
View from above orbital plane
View from above satellite
View from above satellite

Ground track
Ground track

The orbit data is extracted from the following two-line orbital elements,

1 25285U 98021A   15210.45889355  .00000209  00000-0  67634-4 0  9999
2 25285 086.4005 151.8269 0002446 085.7203 274.4273 14.34217438906304
Epoch (UTC): 29 July 2015 11:00:48
Eccentricity: 0.0002446
inclination: 86.4005°
perigee height: 776 km
apogee height: 779 km
right ascension of ascending node: 151.8269°
argument of perigee: 85.7203°
revolutions per day: 14.34217438
mean anomaly at epoch: 274.4273°
orbit number at epoch: 90630

The dashed part of the orbit path shows where the satellite is in the earth's shadow,  

DLR